Find Starlink 35211

NORAD ID: 65757 Int'l Des: 2025-216 Owner: SPXS Country: US Constellation: starlink operational
LEOCIRCULAR

現在のビュー

3D地球を読み込み中...

Starlink 35211について

説明を読み込み中...

次回通過

Passes for default location (London). Set your location on the main map for personalized predictions.

高度履歴

Loading altitude history...

軌道要素

1 65757U 25216Z 26149.48797584 .00043134 00000-0 14589-2 0 9994
2 65757 53.1589 317.6247 0000708 85.1001 275.0081 15.30224973 38913
Epoch: May 29, 2026 • Age: 18 hours

現在のステータス

高度 480.4 km
速度 7.63 km/s
衛星直下点 50.39°N, 51.54°E
打ち上げ日 Sep 25, 2025
運用期間 0.6 years
タイプ internet

技術仕様

分類 Payload
質量 575.00 kg
乾燥質量 530.00 kg
総質量 575.00 kg
長さ 0.30 m
直径 4.10 m
スパン 29.00 m
形状 Box + pan
製造者 SPXS
バスタイプ Starlink V2MO
フェーズステータス In Orbit
所有者/国 SPXS/US

Most Searched